Starlink 36184

operational
NORAD ID: 67021 Int'l Des: 2025-293 Owner: SPXS Country: US Constellation: starlink
LEOCIRCULAR

Starlink 36184について

説明を読み込み中...

リアルタイム位置

3D地球を読み込み中...

次回通過

高度履歴

Altitude vs Time

uPlot chart will show altitude changes over time

軌道要素

1 67021C 25293U 25346.10256944 -.00081475 00000+0 -11033-3 0 3461
2 67021 69.9970 325.9299 0004768 267.5595 192.2659 16.06208480 11
Epoch: Dec 12, 2025 • Age: 57 hours

現在のステータス

高度 276.4 km
速度 7.74 km/s
衛星直下点 -54.52°S, 68.75°E
打ち上げ日 Dec 10, 2025
運用期間 3 days
タイプ internet

技術仕様

分類 Payload
質量 575.00 kg
乾燥質量 530.00 kg
総質量 575.00 kg
長さ 0.30 m
直径 4.10 m
スパン 29.00 m
形状 Box + pan
製造者 SPXS
バスタイプ Starlink V2MO
フェーズステータス In Orbit
所有者/国 SPXS/US

大規模コンステレーション

Loading constellations...